sat.trackr.live / text

‹ back to catalog

STARLINK-3281

NORAD 50183 · 2021-125AD

PAYLOAD ACTIVE UNKNOWN

§ Identity

Operator
Country
US
Launch date
2021-12-18
Launch site
AFWTR
Launch vehicle
Mass (kg)
RCS (m²)

Purposes: comms

External: N2YO · Heavens-Above · Gunter

§ Orbital elements

Epoch: 2026-05-25T00:58:39.173088Z

Period
95.44 min
Inclination
53.2127°
Eccentricity
0.0001295
Mean motion
15.08831055 rev/d
Perigee alt
538.9 km
Apogee alt
540.7 km
Semi-major
6,917.9 km
B*
8.0204e-5
RAAN
266.3663°
Arg perigee
93.4625°
Mean anomaly
266.6515°
Rev number
24,817

§ Raw data

STARLINK-32811 50183U 21125AD  26145.04073117  .00000988  00000+0  80204-4 0  99912 50183  53.2127 266.3663 0001295  93.4625 266.6515 15.08831055248176

JSON: /api/v1/satellites/50183 · /tle

For live sub-satellite position, see the globe view (requires WebGL).

§ Visibility from observer

Set your observer location to see the next 7 days of passes ≥ 10°. The values pass through the URL so the page stays shareable.

No JS? Fill the form by hand. The geolocation button needs JavaScript.